Tracking 20040 objects as of 19-Nov-2019
Live streaming from Space Station
objects crossing your sky now

SJ 16-02 DEB

Track SJ 16-02 DEB now!
10-day predictions


NORAD ID: 43428
Int'l Code: 2016-043C
Perigee: 607.4 km
Apogee: 1,018.1 km
Inclination: 75.0 °
Period: 101.0 minutes
Semi major axis: 7183 km
RCS: Unknown
Launch date: June 29, 2016
Source: People's Republic of China (PRC)
Launch site: Jiuquan Satellite Launch Center, China (JSC)

Note: This is SATELLITE DEBRIS
aabbcc
Your satellite tracking list
Your tracking list is empty




NASA's NSSDC Master Catalog

Two Line Element Set (TLE):
1 43428U 16043C   19321.30898851 +.00000361 +00000-0 +10550-3 0  9997
2 43428 074.9677 315.9091 0285837 343.3325 015.8573 14.25864588175280
Source of the keplerian elements: AFSPC